Weather in Arey

Russia / Zabaykalsky Krai     50°58′13″N   111°14′47″E
temp.,
°C
wind,
m/s
gust,
m/s
humid.,
%
clouds,
%
prec.,
mm/h
press.,
hPa
HPBL,
m
26 july, mon
mon2600:00+10n22865 0.0 101025
03:00+9nnw119398 0.0 101017
06:00+11n1481100 0.0 1009140
09:00+13nnw1274100 0.0 1010217
12:00+15nne347799 0.3 1009670
15:00+15ne268695 1.0 1009529
18:00+18ene355797 0.0 10081081
21:00+13n1189100 0.4 100913
27 july, tue
tue2700:00+11nne11938 0.0 101012
03:00+12nne009289 0.1 100911
06:00+11ene1195100 0.2 100911
09:00+13e1293100 0.3 1009184
12:00+19ese345839 0.1 10071324
15:00+20ene4456100 0.4 10051567
18:00+20e335545 0.5 10041412
21:00+15ne227912 0.8 100523
28 july, wed
wed2800:00+12ne119363 0.1 100610
03:00+11ene119562 0.1 100610
06:00+10e11975 0.0 100610
09:00+16ese127515 0.0 1006394
12:00+21e235811 0.8 10041071
15:00+20ene11727 3.1 1003972
18:00+21nne22648 1.0 10021070
21:00+15ne11905 2.5 100312
29 july, thu
thu2900:00+12n11921 0.0 100410
03:00+12nnw11940 0.0 100410
06:00+11sse00950 0.0 100410
09:00+16ese11850 0.0 1003242
12:00+23e33490 0.0 10011309
15:00+25ene323752 0.0 9992333
18:00+22ne354991 0.0 1000527
21:00+17ene2275100 0.0 100129
30 july, fri
fri3000:00+16nnw1174100 0.0 100215
03:00+15wnw2279100 0.1 100342
06:00+13wnw2898100 1.1 1004322
09:00+14nw3794100 1.7 1005470
12:00+14nw3691100 0.3 1006561
15:00+14nw368894 0.9 1007670
18:00+13w2692100 0.3 1008554
21:00+12w2592100 0.3 1009353